CZ-6A DEB, 61267

Orbit data source: Space-Track

CZ-6A DEB, 61267 is space debris in LEO originally from a launch on Tue, 06 Aug 2024 UTC launched from the Taiyaun Space Center, China (TSC). Debris objects in space refer to the collection of defunct objects orbiting the Earth. Examples of debris include non-operational satellites, rocket bodies, and fragments generated from explosions, collisions, or faulty payload assembly.

Loading next visibility...
Identifier
61267, 2024-140SC
Orbit
LEO
Country
Flag of CNCN / PRC
Related business
Manufacturer
SAST
Mission
Spacecraft
Bus & Motor
Unknown
Mass
Unknown
Launch date (UTC)
2024-08-06 (2 years ago)
Launch vehicle
Unknown
Launch site
Taiyaun Space Center, China (TSC)
Object type
Payload
Rocket body
Debris
Shape & HBR
Unknown shape, 0.1 m
Radar Cross Section
Small (<0.1 m²)

Expand to show TLE details & history
Last TLE update: 20 hours ago

TLE from 20 hours ago
0 CZ-6A DEB
1 61267U 24140SC  26118.18993301  .00001435  00000-0  60595-3 0  9996
2 61267  89.1481 291.2918 0052491  24.2656 336.0991 14.24396119 86749
Epoch: 2026-04-28T04:33Z
TLE epoch observation values (Epoch: 2026-04-28T04:33:30.212Z)
Latitude
-0.00001°
Longitude
6.74711°
Altitude
779.111 km
Speed
7.482 km/s
True Right ascension
19h 25m 10s
True Declination
0° 00' 00"
Sunlit
Object was in daylight at epoch
Visualization orbit readout
Latitude
Unknown
Longitude
Unknown
Altitude
Unknown
Speed
Unknown
Apparent Right ascension
Unknown
Apparent Declination
Unknown
Sunlit
N/A
Visualization observer readout
Local Sidereal Time
08:19:51
Azimuth
Unknown
Elevation
Unknown
Doppler factor
Unknown
Orbital elements
Apogee altitude
845.186 km
Perigee altitude
769.75 km
Semi-major axis
7,185.605 km
Eccentricity
0.00525
Inclination
89.1481°
RAAN
291.2918°
Arg. of periapsis
24.2656°
True anomaly
335.85393°
Mean anomaly
336.0991°
Eccentric anomaly
335.97666°
Mean motion
3.56327 °/min
Orbital period
101.03 mins
BSTAR
0.00060595
Loading maneuver chart data...
Computing Atmospheric mass density...
Loading historical data...
Loading historical data...
Loading historical data...
Loading historical data...
Loading historical data...
Loading historical data...
Loading historical data...

Documentation

Showing up to 5 results
|